Simultaneous Nadir Overpasses (SNOs) Predictions

Prediction of SNOs between GOES-15 and NOAA-19 Satellite Orbit:

Table of predicted SNOs for the next 14.0 days since TLE Epoch: 9/12/2025
Index Date Time (GOES-15) GOES-15 Lat,Lon NOAA-19 Lat,Lon Distance(km) Time Diff (sec)
1 09/13/2025 05:32:40 0.44, 61.30 -0.48, 65.39 465.80 80
2 09/14/2025 18:06:40 -0.50, 61.42 -1.31, 57.87 404.59 80
3 09/15/2025 17:54:00 -0.49, 61.42 -0.57, 60.94 54.23 80
4 09/16/2025 17:38:40 -0.48, 61.42 0.10, 64.02 296.24 80
5 09/19/2025 05:59:41 0.52, 61.31 0.93, 59.64 190.56 80
6 09/20/2025 05:44:21 0.51, 61.30 0.19, 62.71 160.09 80
7 09/22/2025 18:05:40 -0.55, 61.41 -1.28, 58.26 359.49 80
8 09/23/2025 17:53:00 -0.54, 61.41 -0.54, 61.33 9.33 80
9 09/24/2025 17:37:40 -0.53, 61.42 0.15, 64.41 341.14 80
10 09/26/2025 06:11:21 0.57, 61.32 1.59, 56.96 498.07 80
